Tracking 20942 objects as of 14-Jul-2020
HD Live streaming from Space Station
objects crossing your sky now

COSMOS 568

Track COSMOS 568 now!
10-day predictions
COSMOS 568 is classified as:


NORAD ID: 6679
Int'l Code: 1973-037E
Perigee: 1,382.4 km
Apogee: 1,486.8 km
Inclination: 74.0 °
Period: 114.4 minutes
Semi major axis: 7805 km
RCS: 0.71 m2 (medium)
Launch date: June 8, 1973
Source: Commonwealth of Independent States (former USSR) (CIS)
Launch site: PLESETSK MISSILE AND SPACE COMPLEX (PKMTR)
aabbcc
Your satellite tracking list
Your tracking list is empty




NASA's NSSDC Master Catalog

Two Line Element Set (TLE):
1  6679U 73037E   20195.52882794 -.00000018 +00000-0 -12794-4 0  9998
2  6679 074.0186 290.0160 0066932 126.5596 245.3341 12.58907793164345
Source of the keplerian elements: AFSPC